Weather History for Green Bay, WI

Change the Weather History Date:

Monday, February 17, 2014

  Actual Average Record
Temperature  
Mean Temperature 14 °F 21 °F  
Max Temperature 25 °F 29 °F 52 °F (1981)
Min Temperature 3 °F 13 °F -19 °F (1979)
Degree Days  
Heating Degree Days 51 44  
Month to date heating degree days 1020 786  
Since 1 July heating degree days 5913 5375  
Cooling Degree Days 0 0  
Month to date cooling degree days 0 0  
Year to date cooling degree days 0 0  
Moisture  
Dew Point 16 °F    
Average Humidity 88    
Maximum Humidity 96    
Minimum Humidity 80    
Precipitation  
Precipitation 0.40 in 0.04 in 1.09 in (2008)
Month to date precipitation 0.77 0.60  
Year to date precipitation 2.10 1.73  
Snow  
Snow 5.30 in 0.30 in 6.60 in (2008)
Month to date snowfall 13.7 6.1  
Since 1 July snowfall 58.3 36.4  
Snow Depth 19.00 in    
Sea Level Pressure  
Sea Level Pressure 29.93 in    
Wind  
Wind Speed 11 mph (ESE)    
Max Wind Speed 29 mph    
Max Gust Speed 36 mph    
Visibility 4 miles    
Events Fog , Snow    
T = Trace of Precipitation, MM = Missing Value Source: NWS Daily Summary

Daily Weather History Graph

Daily Weather History Graph

Search for Another Location

Airport:

Trip Planner

Search our weather history database for the weather conditions in past years. The results will help you decide how hot, cold, wet, or windy it might be!

Date:

Astronomy

Feb. 17, 2014 Rise Set
Actual Time 6:49 AM CST 5:24 PM CST
Civil Twilight 6:19 AM CST 5:54 PM CST
Nautical Twilight 5:45 AM CST 6:28 PM CST
Astronomical Twilight 5:12 AM CST 7:01 PM CST
Moon 8:27 PM CST (2/17) 7:42 AM CST (2/17)
Length of Visible Light 11h 34m
Length of Day
10h 34m
Waning Gibbous, 93% of the Moon is Illuminated
Feb 17
Waning Gibbous
Feb 22
Last Quarter
Mar 1
New
Mar 8
First Quarter
Mar 16
Full

Hourly Weather History & Observations

Time (CST) Temp. Windchill Dew Point Humidity Pressure Visibility Wind Dir Wind Speed Gust Speed Precip Events Conditions
12:23 AM 5.0 °F -2.1 °F 1.9 °F 87% 30.26 in 10.0 mi NNE 3.5 mph - N/A   Mostly Cloudy
12:48 AM 5.0 °F -2.1 °F 1.4 °F 85% 30.25 in 10.0 mi NNE 3.5 mph - N/A   Scattered Clouds
12:53 AM 6.1 °F -0.9 °F 1.9 °F 83% 30.30 in 10.0 mi NNE 3.5 mph - N/A   Partly Cloudy
1:53 AM 6.1 °F -4.3 °F 3.0 °F 87% 30.30 in 10.0 mi NE 5.8 mph - N/A   Clear
2:30 AM 6.1 °F -0.9 °F 3.0 °F 87% 30.24 in 10.0 mi NE 3.5 mph - N/A   Mostly Cloudy
2:53 AM 6.1 °F -4.3 °F 3.0 °F 87% 30.27 in 10.0 mi ENE 5.8 mph - N/A   Overcast
3:53 AM 7.0 °F -1.7 °F 3.9 °F 87% 30.25 in 10.0 mi NE 4.6 mph - N/A   Overcast
4:53 AM 8.1 °F 1.4 °F 5.0 °F 87% 30.23 in 10.0 mi ENE 3.5 mph - N/A   Overcast
5:53 AM 9.0 °F 2.4 °F 6.1 °F 88% 30.19 in 10.0 mi NE 3.5 mph - N/A   Overcast
6:53 AM 12.0 °F 2.7 °F 9.0 °F 88% 30.11 in 9.0 mi East 5.8 mph - N/A   Overcast
7:37 AM 25.0 °F 10.6 °F 21.0 °F 85% 30.05 in 5.0 mi SSE 20.7 mph 27.6 mph N/A   Overcast
7:53 AM 25.0 °F 9.9 °F 21.0 °F 85% 30.09 in 3.0 mi SSE 23.0 mph 31.1 mph N/A   Overcast
8:53 AM 24.1 °F 9.4 °F 19.9 °F 84% 30.05 in 3.0 mi SSE 20.7 mph - N/A   Overcast
9:09 AM 24.1 °F 8.3 °F 19.9 °F 84% 29.99 in 2.5 mi SSE 24.2 mph - 0.00 in   Overcast
9:16 AM 24.1 °F 7.7 °F 19.9 °F 84% 29.98 in 3.0 mi SSE 26.5 mph 29.9 mph 0.00 in   Overcast
9:33 AM 24.1 °F 8.3 °F 21.0 °F 88% 29.98 in 3.0 mi SSE 24.2 mph 32.2 mph 0.00 in   Overcast
9:53 AM 25.0 °F 9.2 °F 19.9 °F 81% 30.01 in 3.0 mi SSE 25.3 mph 33.4 mph 0.00 in   Haze
10:53 AM 24.1 °F 8.7 °F 19.9 °F 84% 30.01 in 4.0 mi SSE 23.0 mph - 0.00 in   Overcast
11:53 AM 24.1 °F 9.0 °F 19.0 °F 81% 29.96 in 4.0 mi SSE 21.9 mph 29.9 mph N/A   Haze
12:16 PM 23.0 °F 7.2 °F 19.0 °F 85% 29.90 in 2.5 mi SSE 23.0 mph - 0.00 in Snow Light Snow
12:28 PM 23.0 °F 9.2 °F 19.0 °F 85% 29.89 in 1.0 mi SSE 17.3 mph - 0.00 in Snow Light Snow
12:32 PM 23.0 °F 10.1 °F 19.9 °F 88% 29.89 in 0.5 mi SSE 15.0 mph - 0.01 in Fog , Snow Snow
12:42 PM 23.0 °F 9.2 °F 19.9 °F 88% 29.88 in 0.2 mi SSE 17.3 mph - 0.02 in Fog , Snow Snow
12:53 PM 23.0 °F 10.6 °F 21.0 °F 92% 29.92 in 0.2 mi SE 13.8 mph 25.3 mph 0.03 in Fog , Snow Snow
1:11 PM 23.0 °F 10.1 °F 19.9 °F 88% 29.86 in 0.5 mi SE 15.0 mph - 0.02 in Fog , Snow Light Snow
1:29 PM 23.0 °F 9.2 °F 19.9 °F 88% 29.85 in 1.0 mi SSE 17.3 mph - 0.04 in Snow Light Snow
1:53 PM 23.0 °F 10.1 °F 19.9 °F 88% 29.88 in 0.8 mi SE 15.0 mph - 0.05 in Snow Light Snow
2:14 PM 23.0 °F 9.6 °F 19.9 °F 88% 29.83 in 1.2 mi SE 16.1 mph - 0.01 in Snow Light Snow
2:24 PM 23.0 °F 9.6 °F 19.9 °F 88% 29.82 in 0.8 mi SSE 16.1 mph - 0.01 in Snow Light Snow
2:32 PM 23.0 °F 9.6 °F 19.9 °F 88% 29.82 in 0.2 mi SSE 16.1 mph - 0.02 in Fog , Snow Snow
2:51 PM 23.0 °F 12.4 °F 21.2 °F 93% 29.81 in 0.2 mi SE 10.4 mph - 0.03 in Fog , Snow Snow
2:53 PM 23.0 °F 11.1 °F 21.0 °F 92% 29.85 in 0.2 mi SE 12.7 mph - 0.03 in Fog , Snow Snow
3:31 PM 23.0 °F 11.7 °F 21.0 °F 92% 29.76 in 0.5 mi ESE 11.5 mph - 0.06 in Fog , Snow Snow
3:37 PM 23.0 °F 11.1 °F 21.0 °F 92% 29.76 in 0.2 mi ESE 12.7 mph - 0.07 in Fog , Snow Snow
3:53 PM 21.9 °F 9.8 °F 19.9 °F 92% 29.80 in 0.2 mi ESE 12.7 mph - 0.08 in Fog , Snow Heavy Snow
4:53 PM 21.0 °F 10.6 °F 19.9 °F 96% 29.79 in 0.2 mi ESE 9.2 mph - 0.10 in Fog , Snow Heavy Snow
5:20 PM 21.0 °F 12.4 °F 19.9 °F 96% 29.75 in 0.5 mi East 6.9 mph - 0.07 in Fog , Snow Snow
5:33 PM 21.0 °F 12.4 °F 19.0 °F 92% 29.74 in 1.0 mi East 6.9 mph - 0.08 in Snow Light Snow
5:43 PM 21.0 °F 11.4 °F 19.0 °F 92% 29.74 in 3.0 mi East 8.1 mph - 0.08 in Snow Light Snow
5:53 PM 21.0 °F 11.4 °F 19.0 °F 92% 29.78 in 5.0 mi East 8.1 mph - 0.08 in Snow Light Snow
6:39 PM 21.0 °F 12.4 °F 19.0 °F 92% 29.74 in 3.0 mi East 6.9 mph - 0.00 in Snow Light Snow
6:53 PM 21.0 °F 14.6 °F 19.0 °F 92% 29.78 in 2.5 mi ENE 4.6 mph - 0.00 in Snow Light Snow
7:01 PM 21.0 °F 13.4 °F 19.0 °F 92% 29.74 in 1.5 mi ENE 5.8 mph - 0.00 in Snow Light Snow
7:53 PM 21.0 °F 13.4 °F 19.0 °F 92% 29.77 in 1.8 mi ENE 5.8 mph - 0.02 in Snow Light Snow
8:25 PM 21.0 °F 12.4 °F 19.0 °F 92% 29.74 in 2.0 mi NNE 6.9 mph - 0.00 in Snow Light Snow
8:51 PM 19.4 °F 10.4 °F 19.4 °F 100% 29.74 in 3.0 mi NNE 6.9 mph - 0.01 in Snow Light Snow
8:53 PM 21.0 °F 12.4 °F 19.0 °F 92% 29.77 in 3.0 mi NNE 6.9 mph - 0.01 in Snow Light Snow
9:53 PM 19.9 °F 12.1 °F 18.0 °F 92% 29.77 in 3.0 mi NNE 5.8 mph - 0.00 in Snow Light Snow
10:53 PM 15.1 °F 7.7 °F 15.1 °F 100% 29.78 in 6.0 mi North 4.6 mph - 0.00 in   Overcast
11:14 PM 12.9 °F 5.2 °F 12.9 °F 100% 29.74 in 4.0 mi NW 4.6 mph - N/A   Overcast
11:53 PM 18.0 °F 8.7 °F 17.1 °F 96% 29.81 in 8.0 mi WNW 6.9 mph - N/A   Overcast